Location: *
(28.3744°N, 81.5492°W)
Time: 04:21:19
(UTC+00:00)

Cosmos 2219 - Pass Details

Date: 15 June 2025
Orbit: 832 x 859 km, 71.1° (Epoch: 11 July)

Event Time Altitude Azimuth Distance (km) Brightness Sun altitude
Exits shadow 03:07:54 80° 255° (WSW) 869 3.1 -28.4°
Maximum altitude 03:08:05 82° 288° (WNW) 866 3.2 -28.5°
Drops below altitude 10° 03:13:50 10° 17° (NNE) 2,493 6.1 -29.2°
Sets 03:16:18 0° 18° (NNE) 3,434 6.8 -29.5°
